Location: Woodhurst
(52.3667°N, 0.0667°W)
Time: 20:10:06
(UTC+00:00)

Cosmos 1356 Rocket - Pass Details

Date: 19 May 2025
Orbit: 517 x 566 km, 81.2° (Epoch: 21 June)

Event Time Altitude Azimuth Distance (km) Brightness Sun altitude
Exits shadow 22:03:59 - 205° (SSW) 1,959 5.8 -13.6°
Reaches altitude 10° 22:04:14 10° 206° (SSW) 1,861 5.7 -13.6°
Maximum altitude 22:08:17 59° 286° (WNW) 658 3.9 -13.9°
Drops below altitude 10° 22:12:21 10° 7° (N) 1,859 6.9 -14.2°
Sets 22:14:34 0° 11° (N) 2,752 7.8 -14.3°
